Temperature
5 6 5 6 6 5 6 6 5 6 6 8 8 7 7 7 7 7 7 8 8 8 8 7 7 7 7 7 7 7 7 6 6 6 5 5 5 5 5 4 4 4 4 4
4 5 5 5 6 6 6 6 6 6 6 7 7 7 6 6 6 6 7 7 7 7 7 7 7 7 7 7 6 6 6 6 5 5 5 5 4 4 4 4 4 3 3 3
4 4 5 5 5 6 5 5 6 6 7 6 6 6 6 6 6 6 7 7 7 7 7 6 6 6 6 6 6 6 5 5 5 5 4 4 4 4 3 3 3 3 3 3
3 4 4 5 5 6 6 5 5 6 6 6 6 6 7 7 7 7 7 7 6 6 6 6 6 6 6 5 5 5 5 4 4 4 4 4 3 3 3 3 2 2 2 2
3 3 4 5 5 5 5 5 5 5 5 5 5 5 5 6 6 6 6 6 6 6 6 5 5 5 5 5 5 4 4 4 3 3 3 3 3 2 2 2 2 2 2 2
3 3 4 5 5 5 5 4 4 4 4 4 4 4 4 6 6 6 6 6 6 5 5 5 4 4 4 4 4 3 3 3 3 3 2 2 2 2 1 1 1 1 1 1
2 3 3 4 4 5 5 4 4 4 4 4 3 4 5 5 5 5 5 5 5 4 4 4 4 4 4 3 3 3 3 2 2 2 2 1 1 1 1 0 0 0 0 0
2 2 3 3 3 4 4 4 4 4 4 4 4 4 4 4 4 4 4 4 4 4 3 3 3 3 3 3 2 2 2 2 1 1 1 1 0 0 -0 -0 -0 -0 -1 -0
2 2 2 3 3 4 4 4 4 4 4 4 3 4 4 3 3 3 3 3 3 3 3 3 2 2 2 2 2 1 1 1 1 0 0 -0 -0 -0 -1 -1 -1 -1 -1 -2
1 1 2 2 3 3 4 4 4 4 4 4 3 3 3 3 2 2 2 2 2 2 2 2 2 1 1 1 1 1 0 0 -0 -0 -1 -1 -1 -1 -1 -2 -2 -2 -2 -3
0 1 1 2 3 3 3 3 3 3 3 3 3 3 2 2 2 2 2 2 2 2 1 1 1 1 0 0 -0 -0 -0 -1 -1 -1 -1 -2 -2 -2 -2 -2 -3 -3 -3 -3
1 1 1 1 2 2 3 3 3 2 2 2 2 2 2 1 1 1 1 1 1 1 1 1 0 -0 -0 -1 -1 -1 -1 -1 -2 -2 -2 -2 -2 -2 -3 -3 -3 -3 -4 -4
1 1 1 1 1 2 2 2 2 2 2 1 1 1 1 1 1 1 1 0 0 0 -0 -0 -1 -1 -1 -1 -1 -1 -2 -2 -2 -2 -3 -3 -3 -3 -3 -3 -3 -4 -4 -4
0 0 -0 0 1 1 1 1 1 1 1 1 1 1 0 0 0 0 -0 -0 -0 -1 -1 -1 -1 -1 -1 -2 -2 -2 -2 -3 -3 -3 -3 -4 -4 -4 -4 -4 -4 -4 -4 -4
-0 -0 -0 -0 -0 -0 0 0 0 0 0 0 -0 -0 -0 -0 -0 -1 -1 -1 -1 -1 -1 -2 -2 -2 -2 -2 -3 -3 -3 -3 -3 -4 -4 -4 -4 -4 -5 -5 -5 -5 -5 -5
-2 -1 -1 -1 -1 -1 -1 -1 -0 -1 -1 -1 -1 -1 -1 -1 -1 -1 -1 -2 -2 -2 -2 -2 -2 -2 -3 -3 -3 -3 -4 -4 -4 -4 -4 -4 -4 -5 -5 -5 -5 -5 -5 -5
-3 -3 -3 -3 -2 -2 -2 -2 -2 -2 -2 -2 -2 -2 -2 -2 -2 -2 -2 -2 -2 -2 -3 -3 -3 -3 -3 -4 -4 -4 -4 -4 -4 -4 -5 -5 -5 -5 -5 -6 -6 -6 -6 -6
-3 -3 -3 -3 -3 -3 -3 -3 -3 -3 -3 -3 -3 -3 -2 -2 -3 -3 -3 -3 -3 -3 -3 -3 -4 -4 -4 -4 -4 -4 -4 -4 -5 -5 -5 -5 -6 -6 -6 -6 -6 -6 -6 -6
-3 -3 -3 -3 -3 -3 -3 -3 -3 -3 -3 -3 -3 -3 -3 -3 -3 -3 -4 -4 -4 -4 -4 -4 -4 -4 -4 -4 -5 -5 -5 -5 -5 -5 -6 -6 -6 -6 -6 -6 -6 -6 -7 -7
-4 -4 -4 -4 -4 -4 -4 -4 -4 -4 -4 -4 -4 -4 -4 -4 -4 -4 -4 -4 -4 -5 -5 -5 -5 -5 -5 -5 -5 -5 -5 -5 -6 -6 -6 -6 -6 -7 -7 -7 -7 -7 -7 -7
-4 -5 -5 -5 -5 -5 -5 -5 -5 -5 -5 -5 -5 -5 -5 -5 -5 -5 -5 -5 -5 -5 -5 -5 -5 -5 -5 -5 -6 -6 -6 -6 -6 -6 -7 -7 -7 -7 -7 -7 -7 -7 -7 -7
-5 -5 -5 -5 -5 -5 -6 -6 -6 -6 -5 -5 -5 -5 -5 -5 -5 -6 -6 -6 -6 -6 -6 -6 -6 -6 -6 -6 -6 -6 -6 -7 -7 -7 -7 -7 -7 -8 -8 -8 -8 -8 -8 -8
-5 -5 -6 -6 -6 -6 -6 -6 -6 -6 -6 -6 -6 -6 -6 -6 -6 -6 -6 -6 -7 -7 -7 -7 -7 -7 -7 -7 -7 -7 -7 -7 -7 -8 -8 -8 -8 -8 -8 -8 -8 -8 -8 -8
-6 -6 -6 -6 -6 -6 -6 -7 -7 -7 -7 -7 -7 -7 -7 -7 -7 -7 -7 -7 -7 -7 -7 -7 -7 -7 -7 -7 -8 -8 -8 -8 -8 -8 -8 -8 -8 -8 -8 -8 -8 -8 -8 -8
-7 -7 -7 -7 -7 -7 -7 -7 -7 -7 -8 -8 -8 -8 -8 -8 -8 -8 -8 -8 -8 -8 -8 -8 -8 -8 -8 -8 -8 -8 -8 -8 -8 -9 -9 -9 -9 -9 -9 -9 -9 -9 -9 -9
-8 -8 -8 -8 -8 -8 -8 -8 -8 -8 -8 -8 -8 -8 -8 -8 -8 -8 -8 -8 -8 -8 -8 -8 -8 -8 -8 -9 -9 -9 -9 -9 -9 -9 -9 -9 -9 -9 -9 -9 -9 -9 -9 -9
-8 -8 -8 -8 -8 -8 -9 -9 -9 -9 -9 -9 -9 -9 -9 -9 -9 -9 -9 -9 -9 -9 -9 -9 -9 -9 -9 -9 -9 -9 -9 -9 -9 -9 -9 -9 -9 -9 -9 -9 -9 -9 -9 -9
Wind_Speed
6 4 5 7 10 12 13 12 10 10 11 12 9 6 5 3 2 2 2 3 4 4 3 3 3 2 2 2 2 2 3 2 1 0 1 1 2 2 3 4 4 5 5 5
4 5 5 7 11 14 15 12 12 10 13 10 7 3 3 4 4 4 4 4 4 4 4 4 4 3 2 2 1 2 2 1 1 0 1 2 2 3 4 4 5 5 5 6
3 2 2 8 12 14 10 9 10 14 14 6 5 5 6 5 5 5 5 4 4 4 4 4 3 3 3 2 1 2 1 1 0 0 1 2 3 4 4 4 4 5 5 5
2 2 8 7 3 8 10 9 10 9 7 6 7 5 3 3 5 5 4 4 4 4 3 2 2 2 2 2 2 2 1 0 0 0 1 2 3 4 4 4 4 5 6 6
3 4 6 6 3 4 7 7 6 9 7 4 2 1 3 2 3 4 3 4 4 4 4 3 3 3 3 2 2 2 1 1 1 1 2 2 3 4 4 4 5 5 6 6
4 4 6 5 3 2 3 4 2 4 4 3 3 2 4 1 2 2 3 3 3 3 3 3 2 3 3 2 1 0 1 1 1 1 2 2 3 4 4 4 5 5 6 5
6 5 6 5 4 1 4 4 1 2 3 3 4 5 2 2 2 3 3 3 4 4 3 2 2 3 3 2 1 1 1 1 1 1 2 2 3 3 4 4 5 5 6 6
4 5 6 3 2 3 3 1 0 2 2 3 3 2 2 2 3 3 4 3 3 3 2 1 1 3 2 1 1 0 1 1 2 2 2 2 2 3 4 4 5 5 6 6
5 5 3 2 2 3 1 1 1 1 2 3 3 2 2 2 3 3 3 3 3 3 2 1 1 2 2 0 0 1 1 1 2 2 2 2 2 3 3 3 3 5 5 6
3 5 4 3 3 2 1 1 2 1 2 2 2 3 3 3 3 3 2 2 2 3 2 1 1 2 1 0 1 1 1 2 2 2 3 3 2 2 3 3 4 5 5 6
4 5 4 4 3 3 1 1 1 1 1 2 3 3 3 3 3 2 2 1 2 2 2 1 1 1 1 1 1 1 1 2 2 2 2 3 3 3 4 4 4 5 5 5
6 4 4 5 4 3 2 2 1 1 1 1 3 3 3 3 3 2 2 2 1 1 1 1 1 1 1 1 0 0 1 2 2 2 2 3 3 5 6 7 9 9 9 8
5 4 4 5 5 4 2 2 1 1 1 1 1 3 3 3 2 2 2 1 1 1 1 1 1 1 2 1 1 1 1 2 2 2 3 3 3 4 6 7 9 9 10 11
4 3 4 4 4 3 2 1 2 2 2 2 2 3 3 3 2 2 1 1 1 1 1 1 0 1 2 1 1 1 2 2 2 2 3 3 3 3 4 5 6 6 8 11
4 2 3 3 3 2 1 2 3 2 2 2 2 3 3 3 3 2 1 1 1 1 1 1 1 2 2 2 1 2 2 2 2 2 2 3 3 3 3 4 5 6 6 7
4 3 1 1 1 2 2 2 2 1 1 1 1 1 2 3 2 2 1 2 2 1 0 0 1 2 2 1 2 2 2 3 3 2 2 2 3 3 3 4 4 5 5 6
2 2 2 2 2 2 2 1 0 0 0 1 1 1 2 3 3 2 1 1 1 0 0 1 2 2 2 1 1 1 2 3 4 3 2 2 3 3 3 4 4 5 5 6
1 1 1 1 1 1 1 1 1 1 1 1 1 2 2 2 2 1 0 1 2 2 2 2 2 2 2 2 2 1 1 2 2 2 2 2 3 3 3 3 4 5 5 6
4 3 3 3 2 2 2 2 2 2 2 2 2 2 1 1 1 1 1 1 1 1 2 2 3 2 2 3 3 1 1 2 2 2 2 4 4 3 3 3 4 4 5 5
5 4 4 5 5 4 3 3 3 3 2 2 2 2 2 1 1 1 1 0 1 2 2 2 2 2 2 3 3 1 1 2 2 2 2 3 3 3 3 4 4 4 4 5
5 5 5 4 5 5 4 3 3 3 3 3 2 1 1 1 1 1 0 1 2 2 2 3 2 2 2 2 3 1 1 2 2 2 2 3 3 3 3 4 4 4 5 5
4 3 4 4 4 4 4 4 3 3 3 3 3 2 1 2 2 2 1 1 2 3 2 1 2 3 3 3 1 1 2 2 2 2 2 3 3 3 3 4 4 4 5 5
3 3 3 3 3 3 4 4 4 4 4 3 3 2 2 2 1 1 2 2 2 3 3 2 3 5 5 2 1 1 2 2 2 3 3 3 3 3 3 4 4 4 4 5
3 3 3 3 3 4 4 4 4 3 3 3 3 3 2 2 2 2 2 4 5 5 3 4 5 6 5 2 2 2 2 2 3 3 3 3 3 3 3 3 4 4 4 5
3 3 3 3 3 3 2 3 3 4 4 3 4 4 3 2 1 2 2 3 4 5 3 4 6 6 4 2 2 2 2 3 3 3 2 3 3 3 3 3 4 4 4 4
3 2 2 2 2 1 2 2 2 2 3 3 3 3 3 3 2 2 2 3 3 4 3 3 3 4 3 3 3 3 3 4 4 3 3 3 3 3 4 4 5 4 4 4
3 3 2 3 3 3 2 2 2 2 2 2 3 3 3 3 3 3 3 3 3 3 3 3 3 3 3 3 3 3 3 3 3 3 3 3 3 3 4 4 4 4 4 4
Wind_Direction
247 245 205 217 212 200 209 213 217 232 238 255 257 257 259 251 245 234 230 208 182 170 165 155 146 142 139 140 143 136 122 113 119 36 346 345 339 329 326 325 322 313 309 305
258 246 233 243 232 220 222 223 229 241 254 255 267 265 257 247 226 226 224 211 190 172 163 166 167 161 146 146 144 123 126 144 138 63 355 337 328 329 331 328 325 322 312 306
246 240 238 251 226 218 217 213 206 230 243 239 251 245 234 228 221 219 222 201 182 178 176 176 172 161 166 173 143 133 143 144 90 43 337 323 329 336 329 322 322 319 311 307
204 167 232 245 226 207 215 233 222 226 235 226 228 236 235 217 207 220 210 179 173 169 164 159 143 140 140 130 127 124 102 38 346 330 316 321 329 325 319 318 317 313 312 309
191 223 267 286 257 192 201 245 233 228 236 235 223 25 314 246 190 201 190 168 165 161 156 144 137 137 120 105 99 89 60 297 286 285 301 314 316 314 314 317 318 313 309 308
196 210 237 256 287 258 157 255 264 207 222 218 153 204 252 219 154 146 131 129 132 127 119 123 132 127 118 119 106 132 273 287 302 301 295 300 303 307 311 313 311 314 312 307
216 228 256 276 292 122 173 243 269 187 200 186 190 207 191 132 121 122 117 115 117 116 121 142 139 129 129 131 193 257 311 333 332 321 306 297 304 310 315 318 320 320 315 308
195 217 247 304 96 169 223 284 211 197 202 192 188 150 131 130 126 113 105 100 107 109 99 89 132 138 137 174 242 9 20 340 325 319 317 324 323 319 319 319 322 323 323 319
199 221 266 240 227 264 252 242 266 238 227 177 168 172 162 141 123 116 116 117 118 122 109 65 102 135 143 234 39 45 15 331 323 329 328 320 313 313 319 319 319 320 320 319
242 265 282 289 292 305 304 262 274 250 203 162 164 165 155 141 127 118 112 118 114 109 101 58 47 66 104 26 51 56 359 332 331 331 325 322 316 309 308 308 308 309 311 312
246 271 303 302 283 276 306 347 6 23 108 149 141 149 153 149 147 144 131 119 122 129 134 140 94 56 29 29 56 27 347 333 329 322 315 315 314 303 300 286 291 302 299 299
243 243 233 267 290 305 298 290 239 160 83 104 144 157 151 148 143 136 131 120 116 120 137 152 112 28 7 3 44 26 328 322 314 313 313 313 314 318 316 314 316 317 315 310
252 273 267 277 300 301 274 275 259 146 163 136 116 138 138 136 126 120 119 129 149 170 169 151 78 354 337 335 333 300 291 297 300 307 308 310 313 316 318 325 326 327 329 329
288 280 283 285 293 312 309 22 72 63 66 98 117 118 122 124 122 124 159 195 169 136 127 116 37 328 321 325 320 310 302 294 299 290 291 293 294 299 304 312 320 322 325 329
323 289 255 280 322 342 4 75 82 74 72 66 97 126 140 148 157 176 186 131 107 99 80 62 3 323 326 327 316 303 299 292 292 289 289 290 293 299 304 307 309 313 321 327
326 350 14 29 20 29 46 64 87 91 91 95 105 127 145 145 142 130 108 116 125 134 296 313 304 307 320 323 317 311 303 307 317 311 307 307 308 309 309 309 310 312 316 320
322 334 351 353 359 9 14 21 97 173 131 131 151 137 124 117 106 93 73 70 104 149 294 290 298 316 326 314 297 298 306 311 319 320 312 306 306 305 305 307 308 308 309 316
325 320 319 296 286 351 5 17 41 60 67 80 99 104 111 121 133 135 57 52 52 27 359 325 320 336 328 315 309 307 306 307 310 305 306 306 306 303 302 301 304 308 313 318
29 32 33 37 41 59 51 38 35 44 50 78 93 98 104 109 121 120 90 74 54 340 321 326 344 350 325 321 342 332 315 308 309 309 308 309 315 312 308 307 309 311 314 317
31 37 44 41 40 44 42 38 47 49 45 67 84 81 73 60 70 86 87 12 286 270 284 314 327 319 314 318 340 331 314 303 302 309 312 310 308 308 308 310 312 313 315 317
29 35 42 42 39 36 35 37 50 46 35 48 72 83 62 13 17 52 88 315 314 321 320 330 336 314 308 323 340 339 323 312 308 307 306 305 305 307 310 312 314 315 316 317
20 28 33 38 43 32 24 31 42 45 42 42 48 58 52 21 5 357 328 275 297 328 342 324 310 307 318 337 351 338 328 318 313 311 306 303 303 306 309 311 312 313 314 315
23 34 40 42 46 38 31 33 35 41 41 37 33 30 22 355 341 334 324 320 315 326 339 316 312 320 336 0 6 346 329 320 313 305 300 297 297 298 300 304 305 307 309 311
38 42 43 43 55 58 43 26 27 34 33 25 18 12 9 358 346 330 294 312 329 334 337 322 330 336 351 11 347 328 317 310 303 298 296 297 296 297 297 299 302 304 306 308
45 45 47 49 51 45 34 28 30 28 26 19 8 3 1 348 312 316 322 324 335 344 342 335 341 346 355 343 330 317 310 302 298 299 297 299 299 299 299 299 301 304 306 307
42 41 37 37 37 25 18 26 27 16 15 10 360 356 355 354 347 339 341 341 340 343 345 337 335 338 334 323 318 312 306 306 312 309 298 295 294 294 296 300 301 300 301 304
43 41 38 32 25 20 20 25 19 1 356 351 339 340 345 349 353 356 351 346 343 341 333 327 324 322 320 316 312 307 303 299 297 295 295 292 292 291 293 294 296 297 300 303
Height
1418 1417 1419 1419 1420 1423 1424 1424 1427 1422 1420 1412 1411 1411 1411 1411 1412 1413 1413 1414 1415 1416 1418 1420 1421 1423 1424 1425 1427 1427 1428 1428 1428 1429 1428 1427 1426 1425 1423 1421 1419 1416 1414 1412
1417 1415 1416 1416 1414 1415 1415 1416 1417 1417 1414 1408 1408 1409 1410 1410 1410 1410 1411 1412 1413 1414 1416 1417 1419 1420 1422 1423 1424 1424 1424 1425 1425 1425 1425 1424 1422 1421 1419 1416 1414 1412 1410 1407
1417 1416 1415 1415 1408 1407 1409 1408 1410 1410 1405 1405 1406 1407 1407 1407 1408 1408 1409 1410 1411 1412 1413 1415 1416 1418 1419 1420 1421 1421 1421 1422 1422 1422 1421 1420 1419 1417 1415 1412 1410 1407 1405 1403
1418 1419 1418 1403 1398 1398 1400 1401 1402 1401 1400 1400 1402 1402 1403 1404 1405 1406 1407 1408 1409 1411 1412 1414 1415 1416 1417 1418 1418 1418 1419 1419 1419 1418 1418 1417 1415 1413 1411 1408 1406 1403 1401 1398
1417 1416 1409 1402 1398 1398 1400 1399 1397 1397 1397 1398 1399 1401 1402 1402 1403 1404 1405 1406 1408 1409 1411 1412 1413 1414 1415 1416 1416 1416 1416 1416 1416 1415 1414 1413 1411 1409 1407 1404 1401 1399 1396 1393
1415 1413 1409 1399 1395 1394 1396 1399 1395 1394 1395 1397 1398 1403 1402 1401 1401 1402 1404 1405 1406 1408 1410 1411 1412 1413 1413 1413 1414 1414 1414 1414 1413 1412 1411 1409 1407 1405 1403 1400 1397 1394 1391 1389
1410 1410 1404 1398 1395 1394 1401 1397 1394 1393 1394 1394 1395 1397 1398 1399 1400 1401 1402 1404 1405 1406 1408 1409 1410 1411 1411 1411 1412 1412 1411 1411 1410 1409 1407 1406 1404 1401 1399 1396 1393 1390 1387 1384
1408 1407 1404 1396 1395 1397 1396 1393 1393 1392 1393 1393 1393 1395 1396 1397 1398 1399 1401 1402 1403 1405 1406 1407 1408 1409 1408 1409 1409 1409 1408 1407 1407 1405 1404 1402 1400 1398 1396 1393 1389 1386 1383 1380
1403 1402 1398 1395 1394 1393 1393 1392 1392 1392 1392 1393 1393 1394 1395 1396 1397 1398 1400 1401 1402 1403 1404 1405 1406 1407 1406 1406 1406 1406 1405 1404 1403 1402 1401 1399 1397 1394 1392 1389 1386 1383 1380 1377
1401 1398 1396 1394 1393 1392 1392 1392 1391 1391 1392 1392 1392 1393 1394 1395 1396 1397 1399 1400 1401 1402 1402 1403 1404 1404 1405 1404 1404 1403 1402 1401 1400 1399 1397 1395 1393 1391 1389 1386 1383 1380 1377 1374
1398 1396 1394 1392 1392 1391 1391 1391 1391 1390 1391 1391 1391 1392 1393 1394 1395 1396 1397 1398 1399 1400 1401 1401 1402 1402 1402 1402 1402 1401 1400 1399 1397 1396 1394 1392 1390 1388 1386 1383 1381 1378 1375 1372
1395 1393 1394 1392 1391 1391 1390 1389 1389 1389 1389 1390 1390 1391 1392 1393 1394 1395 1396 1397 1398 1398 1399 1400 1400 1400 1400 1400 1399 1398 1397 1396 1394 1393 1391 1389 1387 1384 1382 1380 1378 1375 1372 1370
1392 1391 1391 1389 1389 1389 1388 1388 1388 1388 1388 1388 1389 1390 1391 1392 1393 1394 1395 1396 1396 1397 1397 1398 1398 1398 1398 1397 1397 1395 1394 1393 1391 1389 1388 1386 1383 1381 1378 1376 1374 1372 1369 1366
1389 1389 1388 1387 1387 1386 1386 1386 1386 1386 1386 1387 1388 1389 1390 1390 1391 1392 1393 1394 1395 1395 1395 1396 1396 1396 1395 1395 1394 1392 1391 1390 1388 1387 1385 1383 1381 1378 1376 1373 1370 1367 1366 1363
1387 1387 1386 1385 1384 1384 1384 1384 1384 1385 1385 1386 1387 1387 1388 1389 1390 1391 1392 1392 1393 1393 1393 1393 1393 1393 1392 1392 1391 1389 1388 1387 1385 1384 1382 1380 1378 1376 1374 1371 1368 1365 1362 1359
1385 1384 1384 1383 1383 1383 1383 1383 1383 1383 1384 1384 1385 1386 1387 1387 1388 1389 1390 1390 1391 1391 1391 1391 1391 1390 1390 1389 1388 1386 1385 1384 1383 1381 1379 1377 1375 1373 1371 1369 1366 1363 1360 1357
1384 1383 1383 1382 1382 1382 1382 1382 1382 1382 1383 1383 1384 1384 1385 1386 1386 1387 1388 1388 1388 1389 1389 1389 1388 1388 1387 1386 1385 1384 1382 1381 1380 1378 1377 1375 1373 1371 1369 1367 1364 1361 1359 1356
1384 1383 1383 1382 1382 1381 1381 1381 1381 1382 1382 1382 1383 1383 1383 1384 1384 1385 1385 1386 1386 1386 1386 1386 1386 1385 1384 1383 1382 1381 1380 1378 1377 1376 1374 1372 1371 1369 1367 1364 1362 1360 1357 1355
1383 1383 1382 1382 1381 1381 1381 1380 1381 1381 1381 1381 1381 1382 1382 1383 1383 1384 1384 1384 1384 1384 1384 1384 1383 1383 1382 1381 1380 1378 1377 1376 1374 1373 1372 1370 1368 1366 1364 1362 1360 1358 1355 1353
1383 1382 1382 1381 1381 1381 1380 1380 1380 1380 1380 1381 1381 1381 1381 1381 1382 1382 1382 1382 1382 1382 1381 1381 1380 1380 1379 1378 1377 1376 1375 1373 1372 1370 1369 1367 1365 1364 1362 1360 1358 1356 1354 1351
1383 1382 1382 1381 1381 1381 1381 1380 1380 1380 1380 1380 1380 1380 1380 1380 1381 1381 1380 1380 1381 1380 1379 1379 1378 1377 1376 1376 1375 1373 1372 1371 1369 1368 1366 1365 1363 1361 1360 1358 1356 1354 1352 1350
1383 1383 1382 1382 1381 1381 1381 1380 1380 1380 1379 1379 1379 1379 1379 1379 1379 1379 1379 1379 1378 1378 1377 1376 1376 1375 1374 1373 1372 1371 1369 1368 1367 1365 1364 1362 1361 1359 1357 1356 1354 1353 1350 1348
1383 1383 1382 1382 1382 1381 1381 1381 1380 1380 1380 1379 1379 1378 1378 1378 1378 1377 1377 1377 1376 1376 1375 1374 1373 1373 1372 1371 1370 1368 1367 1365 1364 1363 1361 1360 1359 1357 1356 1354 1352 1351 1349 1347
1384 1383 1383 1383 1382 1382 1381 1381 1381 1381 1380 1380 1379 1379 1378 1377 1376 1376 1376 1375 1374 1374 1373 1372 1371 1371 1370 1369 1367 1366 1364 1363 1362 1360 1359 1358 1356 1355 1354 1352 1350 1349 1347 1345
1384 1383 1383 1383 1382 1382 1382 1381 1381 1381 1380 1379 1379 1378 1377 1376 1376 1375 1374 1373 1372 1371 1370 1370 1369 1368 1367 1366 1365 1364 1362 1361 1359 1358 1357 1355 1354 1353 1351 1350 1348 1347 1345 1344
1384 1384 1383 1383 1383 1382 1382 1381 1381 1380 1379 1379 1378 1377 1377 1376 1375 1374 1373 1372 1371 1370 1369 1368 1367 1366 1365 1364 1363 1361 1360 1359 1357 1356 1354 1353 1352 1350 1349 1348 1347 1345 1344 1342
1384 1384 1384 1383 1383 1382 1382 1381 1380 1380 1379 1378 1377 1377 1376 1375 1374 1373 1371 1370 1369 1368 1367 1366 1365 1364 1363 1362 1361 1359 1358 1356 1355 1354 1352 1351 1350 1348 1347 1346 1345 1344 1342 1341